Time,TemperatureF,DewpointF,PressureIn,WindDirection,WindDirectionDegrees,WindSpeedMPH,WindSpeedGustMPH,Humidity,HourlyPrecipIn,Conditions,Clouds,dailyrainin,SolarRadiationWatts/m^2,SoftwareType,DateUTC
2013-04-19 02:00:00,21.0,6.0,-100.00,North,359,1.0,2.0,51,0.00,,,-99.99,0.000000,,2013-04-19 08:00:00,
2013-04-19 02:32:00,21.0,6.0,-100.00,North,359,1.0,2.0,51,0.00,,,-99.99,0.000000,,2013-04-19 08:32:00,
2013-04-19 02:42:00,21.0,6.0,-100.00,North,359,1.0,2.0,51,0.00,,,-99.99,0.000000,,2013-04-19 08:42:00,
2013-04-19 02:52:00,21.0,6.0,-100.00,North,359,1.0,2.0,51,0.00,,,-99.99,0.000000,,2013-04-19 08:52:00,
2013-04-19 03:00:00,20.0,5.0,-100.00,NNW,346,1.0,2.0,52,0.00,,,-99.99,0.030000,,2013-04-19 09:00:00,
2013-04-19 03:32:00,20.0,5.0,-100.00,NNW,346,1.0,2.0,52,0.00,,,-99.99,0.030000,,2013-04-19 09:32:00,
2013-04-19 03:42:00,20.0,5.0,-100.00,NNW,346,1.0,2.0,52,0.00,,,-99.99,0.030000,,2013-04-19 09:42:00,
2013-04-19 03:52:00,20.0,5.0,-100.00,NNW,346,1.0,2.0,52,0.00,,,-99.99,0.030000,,2013-04-19 09:52:00,
2013-04-19 04:00:00,19.0,6.0,-100.00,NNW,345,1.0,2.0,54,0.00,,,-99.99,0.050000,,2013-04-19 10:00:00,
2013-04-19 04:33:00,19.0,6.0,-100.00,NNW,345,1.0,2.0,54,0.00,,,-99.99,0.050000,,2013-04-19 10:33:00,
2013-04-19 04:42:00,19.0,6.0,-100.00,NNW,345,1.0,2.0,54,0.00,,,-99.99,0.050000,,2013-04-19 10:42:00,
2013-04-19 04:52:00,19.0,6.0,-100.00,NNW,345,1.0,2.0,54,0.00,,,-99.99,0.050000,,2013-04-19 10:52:00,
2013-04-19 05:00:00,24.0,8.0,-100.00,West,270,5.0,9.0,50,0.00,,,-99.99,0.030000,,2013-04-19 11:00:00,
2013-04-19 05:32:00,24.0,8.0,-100.00,West,270,5.0,9.0,50,0.00,,,-99.99,0.030000,,2013-04-19 11:32:00,
2013-04-19 05:42:00,24.0,8.0,-100.00,West,270,5.0,9.0,50,0.00,,,-99.99,0.030000,,2013-04-19 11:42:00,
2013-04-19 05:52:00,24.0,8.0,-100.00,West,270,5.0,9.0,50,0.00,,,-99.99,0.030000,,2013-04-19 11:52:00,
2013-04-19 06:00:00,24.0,8.0,-100.00,WNW,288,4.0,6.0,51,0.00,,,-99.99,0.000000,,2013-04-19 12:00:00,
2013-04-19 06:32:00,24.0,8.0,-100.00,WNW,288,4.0,6.0,51,0.00,,,-99.99,0.000000,,2013-04-19 12:32:00,
2013-04-19 06:42:00,24.0,8.0,-100.00,WNW,288,4.0,6.0,51,0.00,,,-99.99,0.000000,,2013-04-19 12:42:00,
2013-04-19 06:52:00,24.0,8.0,-100.00,WNW,288,4.0,6.0,51,0.00,,,-99.99,0.000000,,2013-04-19 12:52:00,
2013-04-19 07:00:00,23.0,9.0,-100.00,WNW,292,3.0,6.0,52,0.00,,,-99.99,1.790000,,2013-04-19 13:00:00,
2013-04-19 07:32:00,23.0,9.0,-100.00,WNW,292,3.0,6.0,52,0.00,,,-99.99,1.790000,,2013-04-19 13:32:00,
2013-04-19 07:42:00,23.0,9.0,-100.00,WNW,292,3.0,6.0,52,0.00,,,-99.99,1.790000,,2013-04-19 13:42:00,
2013-04-19 07:52:00,23.0,9.0,-100.00,WNW,292,3.0,6.0,52,0.00,,,-99.99,1.790000,,2013-04-19 13:52:00,
2013-04-19 08:00:00,26.0,10.0,-100.00,West,264,3.0,6.0,51,0.00,,,-99.99,46.349998,,2013-04-19 14:00:00,
2013-04-19 08:32:00,26.0,10.0,-100.00,West,264,3.0,6.0,51,0.00,,,-99.99,46.349998,,2013-04-19 14:32:00,
2013-04-19 08:42:00,26.0,10.0,-100.00,West,264,3.0,6.0,51,0.00,,,-99.99,46.349998,,2013-04-19 14:42:00,
2013-04-19 08:52:00,26.0,10.0,-100.00,West,264,3.0,6.0,51,0.00,,,-99.99,46.349998,,2013-04-19 14:52:00,
2013-04-19 09:00:00,27.0,12.0,-100.00,West,277,3.0,7.0,53,0.00,,,-99.99,153.000000,,2013-04-19 15:00:00,
2013-04-19 09:33:00,27.0,12.0,-100.00,West,277,3.0,7.0,53,0.00,,,-99.99,153.000000,,2013-04-19 15:33:00,
2013-04-19 09:43:00,27.0,12.0,-100.00,West,277,3.0,7.0,53,0.00,,,-99.99,153.000000,,2013-04-19 15:43:00,
2013-04-19 09:52:00,27.0,12.0,-100.00,West,277,3.0,7.0,53,0.00,,,-99.99,153.000000,,2013-04-19 15:52:00,
2013-04-19 10:00:00,28.0,18.0,-100.00,West,264,6.0,13.0,66,0.00,,,-99.99,249.500000,,2013-04-19 16:00:00,
2013-04-19 10:32:00,28.0,18.0,-100.00,West,264,6.0,13.0,66,0.00,,,-99.99,249.500000,,2013-04-19 16:32:00,
2013-04-19 10:42:00,28.0,18.0,-100.00,West,264,6.0,13.0,66,0.00,,,-99.99,249.500000,,2013-04-19 16:42:00,
2013-04-19 10:52:00,28.0,18.0,-100.00,West,264,6.0,13.0,66,0.00,,,-99.99,249.500000,,2013-04-19 16:52:00,
2013-04-19 11:00:00,28.0,22.0,-100.00,WSW,256,7.0,15.0,77,0.00,,,-99.99,376.500000,,2013-04-19 17:00:00,
2013-04-19 11:33:00,28.0,22.0,-100.00,WSW,256,7.0,15.0,77,0.00,,,-99.99,376.500000,,2013-04-19 17:33:00,
2013-04-19 11:42:00,28.0,22.0,-100.00,WSW,256,7.0,15.0,77,0.00,,,-99.99,376.500000,,2013-04-19 17:42:00,
2013-04-19 11:52:00,28.0,22.0,-100.00,WSW,256,7.0,15.0,77,0.00,,,-99.99,376.500000,,2013-04-19 17:52:00,
2013-04-19 12:00:00,26.0,24.0,-100.00,West,261,5.0,8.0,89,0.00,,,-99.99,413.299988,,2013-04-19 18:00:00,
2013-04-19 12:33:00,26.0,24.0,-100.00,West,261,5.0,8.0,89,0.00,,,-99.99,413.299988,,2013-04-19 18:33:00,
2013-04-19 12:42:00,26.0,24.0,-100.00,West,261,5.0,8.0,89,0.00,,,-99.99,413.299988,,2013-04-19 18:42:00,
2013-04-19 12:52:00,26.0,24.0,-100.00,West,261,5.0,8.0,89,0.00,,,-99.99,413.299988,,2013-04-19 18:52:00,
2013-04-19 13:00:00,30.0,24.0,-100.00,WSW,257,7.0,10.0,78,0.01,,,-99.99,557.200012,,2013-04-19 19:00:00,
2013-04-19 13:32:00,30.0,24.0,-100.00,WSW,257,7.0,10.0,78,0.01,,,-99.99,557.200012,,2013-04-19 19:32:00,
2013-04-19 13:41:00,30.0,24.0,-100.00,WSW,257,7.0,10.0,78,0.01,,,-99.99,557.200012,,2013-04-19 19:41:00,
2013-04-19 13:52:00,30.0,24.0,-100.00,WSW,257,7.0,10.0,78,0.01,,,-99.99,557.200012,,2013-04-19 19:52:00,
2013-04-19 14:00:00,32.0,23.0,-100.00,WSW,239,5.0,10.0,70,0.00,,,-99.99,921.000000,,2013-04-19 20:00:00,
2013-04-19 14:32:00,32.0,23.0,-100.00,WSW,239,5.0,10.0,70,0.00,,,-99.99,921.000000,,2013-04-19 20:32:00,
2013-04-19 14:41:00,32.0,23.0,-100.00,WSW,239,5.0,10.0,70,0.00,,,-99.99,921.000000,,2013-04-19 20:41:00,
2013-04-19 14:51:00,32.0,23.0,-100.00,WSW,239,5.0,10.0,70,0.00,,,-99.99,921.000000,,2013-04-19 20:51:00,
2013-04-19 16:00:00,30.0,26.0,-100.00,WSW,239,5.0,9.0,85,0.00,,,-99.99,479.899994,,2013-04-19 22:00:00,
2013-04-19 16:33:00,30.0,26.0,-100.00,WSW,239,5.0,9.0,85,0.00,,,-99.99,479.899994,,2013-04-19 22:33:00,
2013-04-19 16:42:00,30.0,26.0,-100.00,WSW,239,5.0,9.0,85,0.00,,,-99.99,479.899994,,2013-04-19 22:42:00,
2013-04-19 16:52:00,30.0,26.0,-100.00,WSW,239,5.0,9.0,85,0.00,,,-99.99,479.899994,,2013-04-19 22:52:00,
2013-04-19 19:00:00,32.0,24.0,-100.00,NW,319,1.0,3.0,72,0.00,,,-99.99,101.300003,,2013-04-20 01:00:00,
2013-04-19 19:32:00,32.0,24.0,-100.00,NW,319,1.0,3.0,72,0.00,,,-99.99,101.300003,,2013-04-20 01:32:00,
2013-04-19 19:42:00,32.0,24.0,-100.00,NW,319,1.0,3.0,72,0.00,,,-99.99,101.300003,,2013-04-20 01:42:00,
2013-04-19 19:52:00,32.0,24.0,-100.00,NW,319,1.0,3.0,72,0.00,,,-99.99,101.300003,,2013-04-20 01:52:00,
2013-04-19 20:00:00,31.0,23.0,-100.00,West,264,7.0,12.0,70,0.00,,,-99.99,27.500000,,2013-04-20 02:00:00,
2013-04-19 20:32:00,31.0,23.0,-100.00,West,264,7.0,12.0,70,0.00,,,-99.99,27.500000,,2013-04-20 02:32:00,
2013-04-19 20:42:00,31.0,23.0,-100.00,West,264,7.0,12.0,70,0.00,,,-99.99,27.500000,,2013-04-20 02:42:00,
2013-04-19 20:52:00,31.0,23.0,-100.00,West,264,7.0,12.0,70,0.00,,,-99.99,27.500000,,2013-04-20 02:52:00,
2013-04-19 21:00:00,29.0,27.0,-100.00,West,268,5.0,10.0,92,0.00,,,-99.99,0.610000,,2013-04-20 03:00:00,
2013-04-19 21:33:00,29.0,27.0,-100.00,West,268,5.0,10.0,92,0.00,,,-99.99,0.610000,,2013-04-20 03:33:00,
2013-04-19 21:43:00,29.0,27.0,-100.00,West,268,5.0,10.0,92,0.00,,,-99.99,0.610000,,2013-04-20 03:43:00,
2013-04-19 21:52:00,29.0,27.0,-100.00,West,268,5.0,10.0,92,0.00,,,-99.99,0.610000,,2013-04-20 03:52:00,